Content
SEND FEEDBACK

Daily
Averages
Monthly
Summary
United States of America

ROHNERVILLE, CALIFORNIA


Home > North America > United States > California
Elevation: 390 feet     Latitude: 40 33N     Longitude: 124 07W

WEATHER
 
SELECT A DAY
Number of Records: 68,182;   Date Range: 9/21/11 - 12/18/14
 
SHARE

PRINT THIS DATA

[ ← Previous Day ]
WEATHER ALMANAC - JULY 11, 2013
[ Next Day → ]
[ °C ]   °F
Weather ElementAverageHighLow
Temperature54.6 °F64.4 °F (1:35 pm)50 °F (3:15 am)
Dewpoint50.1 °F53.6 °F (11:15 am)48.2 °F (5:55 pm)
Humidity85.8 %100 % (3:15 am)64 % (1:35 pm)
Barometer29.99 in30.01 in (12:35 am)29.95 in (5:15 am)

Weather ElementAverage
Weather ElementTotal
Precipitation---
Heating Degree Days7.8 (Base 65)
Growing Degree Days7.2 (Base 50)
Averaged from 71 records on July 11, 2013
WEATHER CONDITIONS BREAKOUT
WIND DIRECTION BREAKOUT
WEATHER BY HOUR - JULY 11, 2013
[ °C ]   °F
Local TimeTemperatureDewpointHumidityBarometerVisibilityWind DirectionWind SpeedGust SpeedPrecipitationEventsConditions
12:35 AM53.6 °F50.0 °F88 %30.01 in8.0 miNorthOvercast
12:55 AM51.8 °F50.0 °F94 %30.01 in7.0 miNorthOvercast
1:15 AM51.8 °F50.0 °F94 %30.00 in7.0 miNorthOvercast
1:35 AM51.8 °F50.0 °F94 %30.00 in7.0 miNorthOvercast
1:55 AM51.8 °F50.0 °F94 %29.99 in7.0 miNorthOvercast
2:15 AM51.8 °F50.0 °F94 %29.99 in6.0 miNorthOvercast
2:35 AM51.8 °F50.0 °F94 %29.99 in6.0 miNorthOvercast
2:55 AM51.8 °F50.0 °F94 %29.98 in7.0 miNorthOvercast
3:15 AM50.0 °F50.0 °F100 %29.98 in7.0 miNorthOvercast
3:35 AM50.0 °F50.0 °F100 %29.97 in6.0 miNorthOvercast
3:55 AM50.0 °F50.0 °F100 %29.97 in8.0 miNorthOvercast
4:15 AM50.0 °F50.0 °F100 %29.96 in6.0 miNorthOvercast
4:35 AM51.8 °F50.0 °F94 %29.96 in8.0 miNorthOvercast
4:55 AM51.8 °F50.0 °F94 %29.96 in9.0 miNorthOvercast
5:15 AM51.8 °F50.0 °F94 %29.95 in10.0 miNorthOvercast
5:35 AM51.8 °F50.0 °F94 %29.96 in9.0 miNorthOvercast
5:55 AM50.0 °F50.0 °F100 %29.96 in8.0 miNorthOvercast
6:15 AM50.0 °F50.0 °F100 %29.96 in5.0 miNorthOvercast
6:35 AM50.0 °F50.0 °F100 %29.97 in5.0 miNorthOvercast
6:55 AM51.8 °F50.0 °F94 %29.97 in6.0 miNorthOvercast
7:15 AM50.0 °F50.0 °F100 %29.97 in5.0 miNorthOvercast
7:35 AM50.0 °F50.0 °F100 %29.97 in3.0 miNorthOvercast
7:55 AM50.0 °F50.0 °F100 %29.97 in3.0 miNorthOvercast
8:15 AM50.0 °F50.0 °F100 %29.97 in3.0 miNorthOvercast
8:35 AM51.8 °F50.0 °F94 %29.97 in5.0 miNorthOvercast
8:55 AM53.6 °F50.0 °F88 %29.98 in7.0 miNorthOvercast
9:15 AM53.6 °F50.0 °F88 %29.98 in9.0 miNorthOvercast
9:35 AM53.6 °F50.0 °F88 %29.98 in9.0 miNorthOvercast
9:55 AM53.6 °F50.0 °F88 %29.98 in10.0 miNorthOvercast
10:15 AM53.6 °F50.0 °F88 %29.98 in10.0 miNorthMostly Cloudy
10:35 AM55.4 °F51.8 °F88 %29.99 in10.0 miNorthMostly Cloudy
10:55 AM55.4 °F51.8 °F88 %29.98 in10.0 miNorthMostly Cloudy
11:15 AM57.2 °F53.6 °F88 %29.99 in10.0 miNorthMostly Cloudy
11:35 AM59.0 °F53.6 °F82 %29.98 in10.0 miNorthScattered Clouds
11:55 AM59.0 °F53.6 °F82 %29.98 in10.0 miNorthPartly Cloudy
12:15 PM59.0 °F53.6 °F82 %29.98 in10.0 miNorthPartly Cloudy
12:35 PM60.8 °F53.6 °F77 %29.98 in10.0 miNorthPartly Cloudy
12:55 PM62.6 °F53.6 °F72 %29.98 in10.0 miNorthClear
1:15 PM62.6 °F53.6 °F72 %29.98 in10.0 miNorthClear
1:35 PM64.4 °F51.8 °F64 %29.98 in10.0 miNorthClear
1:55 PM62.6 °F51.8 °F68 %29.98 in10.0 miNorthClear
2:15 PM62.6 °F51.8 °F68 %29.98 in10.0 miNorthClear
2:35 PM62.6 °F51.8 °F68 %29.98 in10.0 miNorthClear
2:55 PM60.8 °F51.8 °F72 %29.98 in10.0 miNorthClear
3:15 PM60.8 °F51.8 °F72 %29.99 in10.0 miNorthClear
3:35 PM60.8 °F50.0 °F68 %29.98 in10.0 miNorthClear
3:55 PM60.8 °F50.0 °F68 %29.98 in9.0 miNorthClear
4:15 PM59.0 °F50.0 °F72 %29.99 in10.0 miNorthClear
4:35 PM59.0 °F50.0 °F72 %29.99 in10.0 miNorthClear
4:55 PM59.0 °F50.0 °F72 %29.99 in10.0 miNorthClear
5:15 PM59.0 °F50.0 °F72 %29.99 in10.0 miNorthClear
5:35 PM59.0 °F50.0 °F72 %29.99 in10.0 miNorthClear
5:55 PM59.0 °F48.2 °F67 %29.99 in10.0 miNorthClear
6:15 PM57.2 °F48.2 °F72 %29.99 in10.0 miNorthClear
6:35 PM57.2 °F48.2 °F72 %29.99 in10.0 miNorthClear
6:55 PM57.2 °F48.2 °F72 %29.99 in10.0 miNorthClear
7:15 PM55.4 °F48.2 °F77 %29.99 in10.0 miNorthClear
7:35 PM55.4 °F48.2 °F77 %29.99 in10.0 miNorthClear
7:55 PM55.4 °F48.2 °F77 %30.00 in10.0 miNorthClear
8:15 PM53.6 °F48.2 °F82 %30.00 in10.0 miNorthClear
8:35 PM53.6 °F48.2 °F82 %30.00 in9.0 miNorthClear
8:55 PM51.8 °F48.2 °F88 %30.00 in9.0 miNorthClear
9:15 PM51.8 °F48.2 °F88 %30.00 in8.0 miNorthClear
9:35 PM50.0 °F48.2 °F94 %30.00 in10.0 miNorthScattered Clouds
9:55 PM50.0 °F48.2 °F94 %30.01 in10.0 miNorthOvercast
10:15 PM50.0 °F48.2 °F94 %30.01 in10.0 miNorthOvercast
10:35 PM50.0 °F48.2 °F94 %30.01 in10.0 miNorthMostly Cloudy
10:55 PM50.0 °F48.2 °F94 %30.01 in10.0 miNorthScattered Clouds
11:15 PM50.0 °F48.2 °F94 %30.01 in10.0 miNorthScattered Clouds
11:35 PM50.0 °F48.2 °F94 %30.01 in10.0 miNorthMostly Cloudy
11:55 PM50.0 °F48.2 °F94 %30.01 in10.0 miNorthOvercast
Hourly data recorded from KFOT, located miles away from Rohnerville, California







STORIES FROM OUR PARTNERS